SCP
2 3 3 3 2 2 1 1 1 1 1 2 2 2 2 2 2 2 2 1 1 1 1 1 1 1 1 1 1 1 1 1 1 1 1 1 1 1 1 1 1 1 1
3 3 4 4 3 2 1 1 1 1 1 2 2 2 2 2 2 2 2 1 1 1 1 1 1 1 1 1 1 1 1 1 1 1 1 1 1 1 1 1 1 1 1
3 3 4 4 3 2 2 1 1 1 1 1 2 2 2 2 2 2 1 1 1 1 1 1 1 1 1 1 1 1 1 1 2 1 1 1 1 1 1 1 1 1 1
2 2 3 3 3 2 2 1 1 1 1 1 2 2 2 2 2 2 2 1 1 1 1 1 1 1 1 1 1 1 1 1 1 1 1 1 1 1 1 1 1 1 1
2 2 2 2 2 2 2 2 1 1 2 2 1 2 2 2 2 2 2 1 1 1 1 1 1 1 1 1 1 1 1 1 1 1 1 1 1 1 1 1 1 1 1
2 2 3 3 2 2 2 2 2 2 2 1 1 2 2 3 3 3 2 2 1 1 1 1 1 1 1 1 1 1 1 1 1 1 1 1 1 1 1 1 1 1 1
2 2 3 3 2 2 2 2 2 2 2 1 1 1 2 3 3 3 2 2 2 2 1 1 1 1 1 1 1 1 2 1 1 1 1 1 1 1 1 1 2 1 1
3 3 3 3 2 2 2 2 2 2 2 2 2 2 2 2 3 2 2 2 2 2 2 2 2 1 2 2 1 1 2 1 1 1 1 1 1 1 1 1 2 2 1
4 4 3 3 2 2 2 2 2 2 2 2 2 2 2 2 2 2 2 2 2 2 2 2 2 1 2 1 1 1 1 1 1 1 1 1 1 1 1 1 2 2 2
5 5 5 4 3 3 2 2 2 2 2 2 2 2 2 2 2 2 2 3 2 2 2 2 2 1 1 1 1 1 1 1 1 0 1 1 1 1 1 2 2 2 2
6 6 6 5 4 3 2 2 2 2 2 2 2 2 2 2 2 2 3 3 2 2 2 2 2 1 1 1 1 1 1 1 1 1 1 1 1 1 1 1 2 2 2
7 7 6 5 4 3 3 2 2 2 2 2 2 2 1 2 2 2 2 3 2 2 2 2 1 1 1 1 1 1 1 1 1 1 1 1 1 2 2 2 2 2 2
7 6 6 5 5 4 3 2 2 3 3 3 2 2 2 2 2 2 2 2 2 2 2 2 1 1 1 1 1 1 1 0 0 1 1 1 2 2 2 2 2 2 2
5 5 5 5 5 4 3 2 3 3 3 3 3 2 2 2 1 1 1 1 1 1 1 1 1 1 1 1 1 1 0 0 0 0 1 1 1 2 2 2 2 2 2
4 4 4 4 4 4 3 3 4 4 4 3 3 2 2 1 1 1 1 1 1 1 1 1 1 1 1 1 1 0 0 0 0 1 1 1 1 1 1 1 1 1 2
3 3 4 3 4 4 4 5 5 5 4 3 2 2 2 1 1 1 1 1 1 1 1 1 1 1 1 1 1 0 0 0 0 0 1 1 1 1 1 1 1 1 1
4 4 5 5 6 6 6 6 6 5 4 3 3 2 2 2 1 1 1 1 1 1 1 1 1 1 1 1 0 0 0 0 0 0 1 1 1 1 1 1 1 1 1
7 9 10 11 10 9 7 6 5 5 4 3 3 3 2 2 2 1 1 1 1 1 1 1 1 1 1 1 0 0 0 0 0 0 0 1 1 1 1 1 1 1 1
11 15 18 17 14 10 7 5 5 5 4 4 3 3 3 3 3 2 2 2 1 1 1 1 1 1 1 1 0 0 0 0 0 0 0 1 1 1 1 1 1 2 2
14 18 20 18 14 9 6 5 4 4 4 4 3 3 3 3 3 3 3 2 2 2 2 2 1 1 1 1 1 0 0 0 0 0 0 1 1 1 1 1 1 1 1
13 15 17 15 10 6 5 5 5 4 4 3 3 3 3 3 3 3 3 3 3 3 3 3 2 2 1 1 1 1 0 0 0 0 0 0 1 1 1 1 1 1 1
9 11 12 10 6 4 3 4 4 4 3 3 3 2 3 3 3 3 3 3 3 3 4 4 3 3 2 1 1 1 1 0 0 0 0 0 1 1 1 1 1 1 1
6 7 7 6 4 3 2 2 3 3 3 3 2 2 2 2 2 2 2 2 2 3 3 3 3 3 3 2 2 1 1 1 1 0 0 0 0 0 0 0 1 1 1
4 4 4 4 3 3 2 2 2 2 2 2 2 2 2 2 2 2 2 2 2 2 2 2 3 3 2 2 2 1 1 1 1 1 1 1 0 0 0 0 0 1 1
4 4 4 4 3 3 3 2 2 2 1 1 1 1 1 1 1 1 1 1 1 1 1 1 1 1 2 2 1 1 1 1 1 1 1 1 0 0 0 0 0 1 1
4 4 4 4 4 4 4 3 2 2 1 1 1 1 1 1 1 1 1 1 0 0 0 0 0 1 1 1 1 1 1 1 1 1 1 0 0 0 0 0 0 0 0
Wind_Speed
6 7 13 13 13 13 12 12 12 12 12 12 12 12 12 12 12 12 13 13 12 12 12 12 11 11 10 10 11 11 11 11 12 13 13 14 14 14 14 14 13 10 15
10 9 14 14 14 13 12 12 12 12 11 11 11 11 11 11 11 11 12 12 11 11 11 11 11 10 9 10 10 10 10 11 11 11 12 12 13 13 13 13 13 9 14
12 9 12 14 14 13 13 12 12 11 11 11 11 11 11 11 11 11 11 10 10 10 10 10 10 9 9 9 9 9 9 9 9 10 10 6 8 12 11 12 14 14 14
12 8 10 14 14 13 12 11 11 11 11 11 11 11 11 10 10 10 10 10 9 9 9 9 9 8 8 8 8 8 7 7 8 9 5 4 5 11 11 12 13 14 13
11 8 10 15 13 13 12 12 11 11 11 11 11 10 10 10 9 9 10 9 9 8 8 8 8 7 7 7 7 6 6 7 7 7 4 4 4 10 11 12 13 13 13
10 9 11 15 14 13 12 12 11 11 11 11 10 10 9 9 9 9 9 9 8 8 8 8 7 7 6 6 5 5 6 7 5 4 3 4 4 10 11 11 12 12 12
10 8 10 14 14 13 12 12 11 11 10 10 10 9 9 8 8 8 9 9 8 8 7 7 6 6 5 5 4 4 5 7 4 3 3 4 6 11 12 11 11 12 12
12 9 9 13 14 13 12 11 11 10 10 10 10 9 8 8 8 7 8 8 8 7 7 7 6 5 5 4 3 3 4 6 5 4 4 4 7 10 12 12 12 12 12
11 9 7 8 9 12 12 11 10 10 10 9 9 9 8 8 8 7 7 8 7 7 7 7 6 5 5 4 3 3 4 6 4 3 5 4 7 10 11 12 12 12 11
9 9 7 6 6 6 7 11 10 10 10 9 9 9 9 8 7 7 6 7 8 8 7 6 5 5 5 4 4 3 5 5 4 3 3 5 10 10 11 11 12 12 11
8 7 7 6 5 5 5 8 9 9 8 8 7 8 7 3 3 4 5 7 8 8 7 6 5 4 4 4 3 3 3 2 4 2 2 7 10 11 11 11 11 12 12
9 8 7 7 6 6 5 4 3 4 4 3 3 3 3 2 2 3 5 7 7 7 7 6 5 3 2 1 1 2 2 3 3 2 4 9 10 11 11 10 11 12 12
11 9 8 8 7 6 4 4 2 2 2 2 3 3 2 2 2 1 1 2 2 3 2 2 1 1 1 1 1 2 3 2 2 2 4 9 9 10 11 11 11 11 12
10 9 8 8 7 6 5 4 4 3 2 2 3 4 3 2 2 2 1 1 1 1 1 1 1 1 1 2 2 2 3 2 2 2 4 10 10 10 11 11 11 11 11
9 8 8 7 6 6 5 4 4 4 4 3 3 3 4 3 3 2 2 2 2 1 1 1 1 1 2 2 2 3 3 3 3 3 3 9 10 10 10 11 11 11 11
8 8 7 7 6 6 5 4 4 4 3 3 3 3 4 3 3 3 3 2 2 1 2 2 2 2 2 2 2 2 3 3 3 3 3 5 10 10 10 10 11 11 11
9 7 7 7 6 6 5 5 4 4 4 3 3 3 4 3 3 3 3 2 2 2 2 2 2 2 2 2 2 2 2 2 3 3 3 2 4 8 10 9 10 10 10
8 6 5 6 7 6 4 3 3 3 3 3 3 3 4 4 4 3 3 3 2 2 2 2 2 2 2 2 1 1 1 2 2 3 3 3 2 3 6 9 9 9 10
9 8 5 5 6 6 5 3 2 3 3 3 3 3 4 4 4 4 3 2 3 2 2 2 2 2 2 1 1 1 1 2 2 3 3 3 3 3 3 6 9 9 10
7 8 6 5 5 5 4 3 2 2 2 2 2 3 4 3 4 4 3 3 3 3 2 2 3 2 2 1 1 1 0 1 1 2 2 2 2 3 3 3 3 5 9
6 7 6 5 5 5 3 3 2 2 2 2 2 3 3 4 4 4 3 3 3 3 3 3 3 3 2 1 2 2 2 2 0 0 1 1 2 3 3 3 3 2 3
6 6 6 6 5 5 4 3 2 2 2 2 2 2 2 3 4 4 4 3 3 3 3 3 3 2 1 1 2 2 2 3 2 1 0 1 1 1 2 3 3 4 3
6 6 5 5 4 4 4 3 3 2 2 2 1 1 1 2 3 3 4 3 3 3 3 3 3 4 2 1 1 3 3 2 1 2 1 1 1 1 2 1 3 4 4
6 5 5 4 4 4 4 5 5 4 3 2 2 2 2 2 3 3 3 3 3 3 3 3 3 3 4 2 0 1 2 3 2 1 2 2 1 1 2 2 2 3 3
6 5 4 4 4 4 5 5 5 4 3 2 2 3 2 1 2 3 4 4 3 2 3 3 3 3 2 2 1 1 1 1 2 2 1 2 2 1 1 2 2 2 3
5 5 5 5 4 3 4 5 5 5 5 4 3 3 2 1 1 2 3 3 3 2 3 3 3 3 2 2 2 2 2 2 2 2 2 1 2 2 1 1 1 2 2
Wind_Direction
150 154 140 130 122 116 113 110 108 105 102 101 98 97 98 101 105 106 110 113 114 115 115 113 109 103 100 103 105 106 107 111 115 120 126 126 126 126 125 124 123 120 122
147 151 140 133 127 121 117 115 111 110 110 108 105 104 103 105 108 109 112 114 116 117 117 115 112 109 108 109 108 105 105 110 113 118 124 127 130 128 126 125 124 126 127
140 144 140 135 131 127 123 120 117 116 116 114 112 111 110 111 112 113 114 116 117 119 120 119 117 115 115 113 112 109 110 114 120 124 124 121 127 127 127 129 129 129 130
138 140 141 138 135 131 127 126 125 123 121 120 119 116 115 116 117 119 119 121 121 122 121 121 121 118 116 116 119 119 118 119 125 128 124 126 130 134 133 135 135 135 135
137 143 149 142 138 135 134 135 133 131 128 126 125 123 122 122 123 125 127 128 128 128 127 127 126 121 122 121 124 123 123 123 125 122 119 121 126 141 142 141 140 139 139
139 146 150 145 144 143 142 141 139 137 136 134 132 129 128 128 131 133 137 138 138 137 138 138 135 136 136 131 128 125 122 125 122 117 124 132 136 147 145 146 145 144 144
142 147 151 148 149 149 147 145 145 144 142 141 140 137 137 135 136 138 143 145 147 146 146 149 151 151 144 142 137 131 127 131 123 128 131 145 152 150 151 157 156 150 150
145 148 151 151 152 154 153 152 150 150 149 146 144 144 145 145 145 147 152 154 155 156 158 160 169 170 163 156 153 149 145 140 126 127 127 141 155 157 160 165 163 157 154
144 146 149 156 158 158 157 156 153 154 153 153 152 151 153 154 154 158 163 167 166 165 167 172 180 186 180 179 184 178 152 134 123 135 140 149 164 164 162 165 164 163 157
141 145 149 152 152 154 159 160 156 157 154 156 160 159 160 162 163 169 173 178 178 175 173 178 189 198 201 200 200 186 145 129 121 131 137 162 172 172 165 165 166 163 160
145 150 151 150 150 154 160 162 160 159 161 161 166 167 165 164 169 176 182 183 185 181 181 186 194 203 207 214 203 173 142 124 131 139 148 166 174 172 167 164 168 166 166
160 162 157 155 159 159 163 154 159 160 160 162 163 168 160 162 182 177 186 183 186 189 189 189 192 194 189 198 175 150 131 133 135 154 167 170 172 173 174 172 170 172 173
163 161 163 161 164 164 160 153 161 155 155 166 164 165 156 156 173 169 158 178 179 177 169 185 189 171 141 131 114 129 143 138 153 168 173 173 177 177 178 177 175 177 179
158 164 167 163 161 164 158 164 162 159 163 173 178 169 154 154 159 161 157 158 153 143 142 143 158 166 143 140 138 144 153 152 162 164 181 182 183 181 180 178 178 181 182
157 161 165 159 160 160 155 166 159 167 171 172 173 170 161 162 166 163 159 162 165 146 141 141 152 151 141 119 133 137 143 151 160 163 178 186 187 185 182 181 180 182 183
156 163 160 160 161 158 159 162 161 167 167 164 168 175 167 162 160 159 151 151 150 147 143 141 147 137 130 128 130 144 153 159 164 167 170 187 189 189 187 184 186 187 189
153 159 164 158 150 152 158 159 152 158 160 166 172 174 167 164 162 155 147 145 146 139 130 128 112 110 123 124 127 146 157 167 170 170 172 180 187 192 191 190 190 190 191
143 144 158 157 148 148 144 145 146 149 153 159 164 166 165 163 159 147 145 147 146 135 128 127 107 100 101 106 117 150 164 164 173 173 173 176 176 186 194 196 195 193 193
146 148 150 146 144 143 137 130 137 139 143 149 152 158 164 163 158 149 145 143 139 128 125 130 104 114 114 108 127 135 157 161 176 172 169 177 181 185 185 195 198 197 197
139 138 143 137 132 127 119 113 109 117 136 138 148 159 155 158 153 141 138 137 132 127 125 119 115 112 121 133 121 90 44 186 158 168 179 173 178 190 193 196 194 201 201
127 131 136 134 133 128 126 128 137 160 158 148 163 163 158 156 148 139 135 132 132 138 149 142 122 111 101 100 86 50 11 11 56 193 169 164 176 189 192 198 194 199 204
138 141 139 143 145 144 145 145 160 146 154 156 155 146 150 146 145 145 139 142 142 136 136 136 123 113 100 95 116 103 36 358 350 346 187 179 187 183 203 206 197 198 202
148 146 142 146 147 147 139 129 116 85 78 82 101 128 139 137 135 139 144 145 146 145 151 149 137 133 139 90 114 132 135 204 301 331 304 257 228 202 217 215 205 205 203
158 144 139 151 147 143 139 141 143 140 140 159 149 144 126 116 124 136 134 135 139 142 147 154 139 134 137 149 119 119 154 156 152 313 327 321 283 219 214 220 210 216 203
153 148 149 151 150 148 147 148 144 133 136 124 122 123 119 110 118 129 130 125 128 136 143 138 133 131 136 152 165 145 110 95 130 153 257 315 330 290 234 224 217 218 209
140 147 146 149 149 150 147 142 143 143 138 131 133 139 136 123 117 125 130 128 136 141 142 143 140 139 143 143 143 145 149 151 175 162 191 248 281 289 284 236 219 223 221